This demonstration page uses our WeatherBlox Daily Observations layout. Learn more.

41.55636, -103.73856

Hourly Observations for May 17, 2015

Temp ( °F °C ) Dew Point ( °F °C ) Humidity (%) Winds ( mph kmh ) Pressure ( in mb ) Visibility ( mi km ) Precip ( " mm )
12:53 am 00:53 Clear 50 10 43 6 76 76 WNW 8 13 29.65 1004 10 16.09344 0 0
1:53 am 01:53 Clear 48 9 43 6 82 82 WNW 9 15 29.65 1004 10 16.09344 0 0
2:53 am 02:53 Clear 46 8 43 6 87 87 WNW 9 15 29.68 1005 10 16.09344 0 0
3:53 am 03:53 Clear 46 8 39 4 76 76 W 12 19 29.68 1005 10 16.09344 0 0
4:53 am 04:53 Clear 46 8 39 4 76 76 W 10 17 29.68 1005 10 16.09344 0 0
5:53 am 05:53 Sunny 46 8 39 4 76 76 W 20 31 29.71 1006 10 16.09344 0 0
6:53 am 06:53 Partly Cloudy 50 10 43 6 76 76 WNW 13 20 29.71 1006 10 16.09344 0 0
7:03 am 07:03 Mostly Cloudy 48 9 43 6 82 82 W 14 22 29.74 1007 10 16.09344 0 0
7:41 am 07:41 Partly Cloudy 54 12 45 7 72 72 WNW 20 31 29.71 1006 10 16.09344 0 0
7:53 am 07:53 Sunny 54 12 45 7 72 72 WNW 21 33 29.71 1006 10 16.09344 0 0
8:42 am 08:42 Mostly Cloudy 55 13 45 7 67 67 NW 18 30 29.74 1007 10 16.09344 0 0
8:49 am 08:49 Mostly Cloudy 57 14 43 6 59 59 NW 24 39 29.74 1007 10 16.09344 0 0
8:53 am 08:53 Partly Cloudy 55 13 43 6 63 63 NW 25 41 29.74 1007 10 16.09344 0 0
9:53 am 09:53 Cloudy 57 14 43 6 59 59 NW 24 39 29.77 1008 10 16.09344 0 0
10:53 am 10:53 Cloudy 57 14 43 6 59 59 NW 17 28 29.8 1009 10 16.09344 0 0
11:53 am 11:53 Cloudy with Light Rain 54 12 45 7 72 72 WNW 21 33 29.85 1011 10 16.09344 0.001 0.001
12:53 pm 12:53 Cloudy 61 16 45 7 55 55 NW 21 33 29.8 1009 10 16.09344 0.001 0.001
1:53 pm 13:53 Partly Cloudy 64 18 43 6 46 46 NW 23 37 29.77 1008 10 16.09344 0 0
2:53 pm 14:53 Mostly Cloudy 63 17 41 5 45 45 NW 20 31 29.8 1009 10 16.09344 0 0
3:53 pm 15:53 Partly Cloudy 66 19 39 4 37 37 NW 22 35 29.8 1009 10 16.09344 0 0
4:53 pm 16:53 Sunny 63 17 39 4 42 42 NW 22 35 29.85 1011 10 16.09344 0 0
5:53 pm 17:53 Mostly Cloudy 61 16 43 6 52 52 WNW 16 26 29.91 1013 10 16.09344 0 0
6:53 pm 18:53 Mostly Cloudy 57 14 41 5 55 55 NNW 21 33 29.97 1015 10 16.09344 0 0
7:53 pm 19:53 Sunny 55 13 41 5 59 59 NNW 17 28 30 1016 10 16.09344 0 0
8:53 pm 20:53 Clear 52 11 39 4 62 62 NNW 15 24 30.06 1018 10 16.09344 0 0
9:53 pm 21:53 Clear 50 10 37 3 62 62 NNW 18 30 30.12 1020 10 16.09344 0 0
10:53 pm 22:53 Clear 48 9 37 3 66 66 NW 13 20 30.21 1023 10 16.09344 0 0
11:53 pm 23:53 Mostly Cloudy 46 8 37 3 71 71 NW 12 19 30.27 1025 10 16.09344 0 0

Powered by AerisWeather